User: anonymous
Location: Plymouth
(43.7570°N, 71.6890°W)
Time: 20:01:24
(UTC-04:00)
Language:

COSMOS 2406 - Orbit

View from above orbital plane
View from above orbital plane
View from above satellite
View from above satellite

Ground track
Ground track

The orbit data is extracted from the following two-line orbital elements,

1 28352U 04021A   14261.45526990 -.00000179  00000-0 -72566-4 0  3871
2 28352 071.0022 057.9043 0014520 181.3144 241.4956 14.11350625529360
Epoch (UTC): 18 September 2014 10:55:35
Eccentricity: 0.0014520
inclination: 71.0022°
perigee height: 844 km
apogee height: 865 km
right ascension of ascending node: 57.9043°
argument of perigee: 181.3144°
revolutions per day: 14.11350625
mean anomaly at epoch: 241.4956°
orbit number at epoch: 52936

The dashed part of the orbit path shows where the satellite is in the earth's shadow,  

DLR